Sidney, MT

4:21 PM MST on January 21, 2017 (GMT -0700)
Sidney-Richland

Weather History for KSDY - January, 2012

Change the Weather History Date:

Tuesday, January 3, 2012

  Actual Average Record
Temperature  
Mean Temperature 40 °F -  
Max Temperature 51 °F 20 °F 52 °F (1918)
Min Temperature 28 °F 0 °F -30 °F (1969)
Degree Days  
Heating Degree Days 26    
Moisture  
Dew Point 26 °F    
Average Humidity 59    
Maximum Humidity 86    
Minimum Humidity 40    
Precipitation  
Precipitation 0.00 in - - ()
Sea Level Pressure  
Sea Level Pressure 29.95 in    
Wind  
Wind Speed 11 mph (West)    
Max Wind Speed 29 mph    
Max Gust Speed 41 mph    
Visibility 10 miles    
Events      
Averages and records for this station are not official NWS values.
T = Trace of Precipitation, MM = Missing Value Source: NWS Daily Summary

Daily Weather History Graph

Daily Weather History Graph

Search for Another Location

Airport or City:

Trip Planner

Search our weather history database for the weather conditions in past years. The results will help you decide how hot, cold, wet, or windy it might be!

Date:

Astronomy

Jan. 03, 2012 Rise Set
Actual Time 7:45 AM MST 4:17 PM MST
Civil Twilight 7:09 AM MST 4:52 PM MST
Nautical Twilight 6:30 AM MST 5:32 PM MST
Astronomical Twilight 5:52 AM MST 6:09 PM MST
Moon 12:12 PM MST (1/3) 2:30 AM MST (1/3)
Length of Visible Light 9h 43m
Length of Day
8h 31m
Waxing Gibbous, 73% of the Moon is Illuminated
Jan 3
Waxing Gibbous
Jan 9
Full
Jan 16
Last Quarter
Jan 23
New
Jan 30
First Quarter

Hourly Weather History & Observations

Time (MST) Temp. Windchill Dew Point Humidity Pressure Visibility Wind Dir Wind Speed Gust Speed Precip Events Conditions
12:15 AM 30.2 °F 21.3 °F 23.0 °F 75% 29.86 in 10.0 mi SSW 10.4 mph - N/A   Clear
12:35 AM 32.0 °F - 24.8 °F 75% 29.87 in 10.0 mi Calm Calm - N/A   Clear
12:55 AM 30.2 °F 22.6 °F 24.8 °F 80% 29.87 in 10.0 mi SSW 8.1 mph - N/A   Clear
1:16 AM 28.4 °F 22.2 °F 24.8 °F 86% 29.87 in 10.0 mi SSW 5.8 mph - N/A   Clear
1:35 AM 28.4 °F 22.2 °F 24.8 °F 86% 29.87 in 10.0 mi SSW 5.8 mph - N/A   Clear
2:15 AM 30.2 °F 24.3 °F 24.8 °F 80% 29.87 in 10.0 mi SSW 5.8 mph - N/A   Clear
2:35 AM 30.2 °F 25.4 °F 24.8 °F 80% 29.88 in 10.0 mi SSW 4.6 mph - N/A   Clear
2:55 AM 30.2 °F 25.4 °F 23.0 °F 75% 29.87 in 10.0 mi SSE 4.6 mph - N/A   Clear
3:15 AM 30.2 °F - 24.8 °F 80% 29.87 in 10.0 mi Calm Calm - N/A   Clear
3:35 AM 32.0 °F 26.4 °F 24.8 °F 75% 29.87 in 10.0 mi SSW 5.8 mph - N/A   Clear
3:55 AM 30.2 °F 24.3 °F 24.8 °F 80% 29.87 in 10.0 mi SSW 5.8 mph - N/A   Clear
4:15 AM 30.2 °F 20.2 °F 24.8 °F 80% 29.86 in 10.0 mi SSW 12.7 mph - N/A   Clear
4:35 AM 30.2 °F 20.8 °F 24.8 °F 80% 29.86 in 10.0 mi SSW 11.5 mph - N/A   Clear
4:55 AM 30.2 °F 22.6 °F 24.8 °F 80% 29.86 in 10.0 mi SSW 8.1 mph - N/A   Clear
5:15 AM 37.4 °F 29.8 °F 28.4 °F 70% 29.86 in 10.0 mi WSW 11.5 mph - N/A   Clear
5:55 AM 42.8 °F 35.8 °F 24.8 °F 49% 29.85 in 10.0 mi West 13.8 mph - N/A   Clear
6:15 AM 42.8 °F 36.6 °F 24.8 °F 49% 29.85 in 10.0 mi West 11.5 mph - N/A   Clear
6:35 AM 41.0 °F 36.4 °F 23.0 °F 49% 29.84 in 10.0 mi SW 6.9 mph - N/A   Clear
6:55 AM 30.2 °F 24.3 °F 21.2 °F 69% 29.83 in 10.0 mi WSW 5.8 mph - N/A   Clear
7:15 AM 30.2 °F - 21.2 °F 69% 29.84 in 10.0 mi Calm Calm - N/A   Clear
7:35 AM 41.0 °F 35.8 °F 26.6 °F 57% 29.85 in 10.0 mi West 8.1 mph - N/A   Clear
7:55 AM 44.6 °F 39.2 °F 24.8 °F 46% 29.86 in 10.0 mi WNW 10.4 mph - N/A   Clear
8:15 AM 44.6 °F 39.2 °F 24.8 °F 46% 29.88 in 10.0 mi West 10.4 mph - N/A   Clear
8:35 AM 46.4 °F 40.7 °F 24.8 °F 43% 29.89 in 10.0 mi West 12.7 mph 18.4 mph N/A   Clear
8:55 AM 48.2 °F - 24.8 °F 40% 29.89 in 10.0 mi West 23.0 mph 28.8 mph N/A   Clear
9:15 AM 48.2 °F - 26.6 °F 43% 29.90 in 10.0 mi West 21.9 mph 31.1 mph N/A   Clear
9:35 AM 50.0 °F - 26.6 °F 40% 29.90 in 10.0 mi West 20.7 mph 32.2 mph N/A   Clear
9:55 AM 48.2 °F - 26.6 °F 43% 29.89 in 10.0 mi West 26.5 mph 32.2 mph N/A   Clear
10:15 AM 50.0 °F - 26.6 °F 40% 29.89 in 10.0 mi WNW 25.3 mph 36.8 mph N/A   Clear
10:35 AM 50.0 °F - 26.6 °F 40% 29.90 in 10.0 mi WNW 25.3 mph 34.5 mph N/A   Clear
10:55 AM 51.8 °F - 28.4 °F 41% 29.90 in 10.0 mi WNW 25.3 mph 41.4 mph N/A   Partly Cloudy
11:55 AM 48.2 °F - 28.4 °F 46% 29.93 in 10.0 mi WNW 28.8 mph 38.0 mph N/A   Clear
12:15 PM 48.2 °F - 28.4 °F 46% 29.93 in 10.0 mi NW 27.6 mph 36.8 mph N/A   Clear
12:35 PM 48.2 °F - 28.4 °F 46% 29.94 in 10.0 mi NW 24.2 mph 32.2 mph N/A   Clear
12:55 PM 48.2 °F - 28.4 °F 46% 29.95 in 10.0 mi WNW 24.2 mph 31.1 mph N/A   Clear
1:15 PM 48.2 °F - 28.4 °F 46% 29.96 in 10.0 mi WNW 26.5 mph 31.1 mph N/A   Clear
1:55 PM 48.2 °F - 28.4 °F 46% 29.99 in 10.0 mi West 19.6 mph 27.6 mph N/A   Clear
2:15 PM 50.0 °F - 26.6 °F 40% 30.02 in 10.0 mi WNW 17.3 mph 25.3 mph N/A   Clear
2:35 PM 48.2 °F - 26.6 °F 43% 30.03 in 10.0 mi WNW 17.3 mph 20.7 mph N/A   Clear
2:55 PM 48.2 °F - 26.6 °F 43% 30.04 in 10.0 mi WNW 17.3 mph - N/A   Clear
3:15 PM 48.2 °F - 28.4 °F 46% 30.05 in 10.0 mi WNW 17.3 mph - N/A   Clear
3:35 PM 46.4 °F 40.1 °F 26.6 °F 46% 30.07 in 10.0 mi WNW 15.0 mph 20.7 mph N/A   Clear
3:55 PM 44.6 °F 38.8 °F 26.6 °F 49% 30.10 in 10.0 mi WNW 11.5 mph - N/A   Clear
4:15 PM 42.8 °F 37.5 °F 26.6 °F 53% 30.10 in 10.0 mi WNW 9.2 mph - N/A   Clear
4:35 PM 42.8 °F 38.0 °F 26.6 °F 53% 30.11 in 10.0 mi WNW 8.1 mph - N/A   Clear
4:55 PM 41.0 °F 34.3 °F 26.6 °F 57% 30.12 in 10.0 mi West 11.5 mph - N/A   Clear
5:15 PM 39.2 °F 32.5 °F 26.6 °F 61% 30.12 in 10.0 mi WNW 10.4 mph - N/A   Clear
5:55 PM 37.4 °F 30.8 °F 26.6 °F 65% 30.13 in 10.0 mi WNW 9.2 mph - N/A   Clear
6:15 PM 37.4 °F 30.8 °F 26.6 °F 65% 30.13 in 10.0 mi WNW 9.2 mph - N/A   Clear
6:35 PM 37.4 °F 32.1 °F 26.6 °F 65% 30.13 in 10.0 mi West 6.9 mph - N/A   Clear
6:55 PM 37.4 °F 30.8 °F 26.6 °F 65% 30.13 in 10.0 mi West 9.2 mph - N/A   Clear
7:15 PM 37.4 °F 30.3 °F 28.4 °F 70% 30.12 in 10.0 mi West 10.4 mph - N/A   Clear
7:35 PM 37.4 °F 28.9 °F 26.6 °F 65% 30.13 in 10.0 mi West 13.8 mph - N/A   Clear
7:55 PM 37.4 °F 29.3 °F 26.6 °F 65% 30.13 in 10.0 mi West 12.7 mph - N/A   Clear
8:15 PM 37.4 °F 29.3 °F 26.6 °F 65% 30.14 in 10.0 mi West 12.7 mph - N/A   Clear
8:55 PM 39.2 °F 31.6 °F 26.6 °F 61% 30.13 in 10.0 mi West 12.7 mph - N/A   Clear
9:15 PM 37.4 °F 30.3 °F 26.6 °F 65% 30.14 in 10.0 mi West 10.4 mph - N/A   Clear
9:35 PM 39.2 °F 32.0 °F 26.6 °F 61% 30.12 in 10.0 mi West 11.5 mph - N/A   Clear
9:55 PM 37.4 °F 31.4 °F 24.8 °F 60% 30.12 in 10.0 mi West 8.1 mph - N/A   Clear
10:15 PM 33.8 °F 27.7 °F 24.8 °F 70% 30.12 in 10.0 mi South 6.9 mph - N/A   Clear
10:55 PM 30.2 °F 21.9 °F 24.8 °F 80% 30.11 in 10.0 mi SSW 9.2 mph - N/A   Clear
11:15 PM 30.2 °F 21.3 °F 24.8 °F 80% 30.12 in 10.0 mi SSW 10.4 mph - N/A   Clear
11:35 PM 30.2 °F 21.9 °F 24.8 °F 80% 30.11 in 10.0 mi SSW 9.2 mph - N/A   Clear
11:55 PM 30.2 °F 21.3 °F 24.8 °F 80% 30.10 in 10.0 mi SSW 10.4 mph - N/A   Clear